Location: El Centro
(32.7920°N, 115.5620°W)
Time: 10:47:00
(UTC-07:00)

Amateur Radio Satellites - All Passes

Search period start: 23 April 2017 10:17
Search period end: 24 April 2017 10:17
Location: El Centro, 32.7920°N, 115.5620°W

Satellite Date Start Highest point End Downlink Frequencies (MHz)
Time Altitude Azimuth
DELFI C3 23 Apr 10:19:04 10:23:05 82° 103° (ESE) 10:27:04 145.870
AO-73 23 Apr 10:22:36 10:25:40 20° 289° (WNW) 10:28:47 145.935
OBJECT BX 23 Apr 10:23:03 10:26:41 68° 101° (E) 10:30:19 145.990 - 145.960
RS-15 23 Apr 10:23:53 10:33:25 26° 321° (NW) 10:43:09 29.354- 29.394
TIGRISAT 23 Apr 10:38:06 10:42:17 40° 261° (W) 10:46:25 435.000
Oscar 11 23 Apr 10:43:36 10:46:03 15° 292° (WNW) 10:48:29 .
FO-29 23 Apr 10:50:23 10:57:01 53° 259° (W) 11:02:54 435.910
NANOSAT C BR1 23 Apr 10:53:58 10:56:37 16° 69° (ENE) 10:59:16 145.865
UNISAT 6 23 Apr 10:59:02 11:02:27 21° 264° (W) 11:05:50 437.425
AIST 2D 23 Apr 11:09:53 11:13:16 53° 76° (ENE) 11:16:40 435.315
EO-79 23 Apr 11:17:55 11:21:46 35° 73° (ENE) 11:25:37 145.935-145.965
DUCHIFAT 1 23 Apr 11:24:33 11:28:21 34° 73° (ENE) 11:32:09 145.980
O/OREOS (USA 219) 23 Apr 11:26:08 11:30:27 41° 293° (WNW) 11:34:49 437.305
ESTCUBE 1 23 Apr 11:30:36 11:34:31 28° 97° (E) 11:38:25 437.505/2401.250
LO-87 23 Apr 11:39:36 11:43:10 80° 101° (ESE) 11:46:41 145.935 - 145.965
POLYITAN 1 23 Apr 11:55:35 11:59:49 75° 259° (W) 12:04:02 437.675
SPROUT 23 Apr 11:57:16 11:58:54 12° 93° (E) 12:00:32 437.525
VELOX 1 23 Apr 12:01:22 12:04:00 15° 94° (E) 12:06:35 145.980
QB50P2 23 Apr 12:02:03 12:06:12 56° 259° (W) 12:10:22 145.880/145.840
PCSat 23 Apr 12:18:59 12:24:11 45° 61° (ENE) 12:29:21 145.827
NANOSAT C BR1 23 Apr 12:28:16 12:32:02 32° 262° (W) 12:35:49 145.865
AO-85 23 Apr 12:28:46 12:32:27 26° 113° (ESE) 12:35:57 145.980
50 SAT 23 Apr 12:38:45 12:41:27 21° 97° (E) 12:44:08 437.505
Oscar 19 23 Apr 12:40:45 12:45:03 28° 69° (ENE) 12:49:22 437.125/150
BUGSAT 1 23 Apr 12:41:11 12:45:22 89° 243° (WSW) 12:49:32 437.445
RS-15 23 Apr 12:50:04 12:52:48 11° 357° (N) 12:55:31 29.354- 29.394
EO-79 23 Apr 12:55:16 12:57:35 14° 266° (W) 12:59:55 145.935-145.965
DUCHIFAT 1 23 Apr 13:01:41 13:04:04 15° 266° (W) 13:06:27 145.980
DX 1 23 Apr 13:04:25 13:08:16 30° 98° (E) 13:12:04 434.975-435.025
ESTCUBE 1 23 Apr 13:07:41 13:11:07 22° 291° (WNW) 13:14:33 437.505/2401.250
SPROUT 23 Apr 13:30:57 13:34:57 42° 286° (WNW) 13:38:57 437.525
VELOX 1 23 Apr 13:36:27 13:40:31 36° 287° (WNW) 13:44:32 145.980
BEESAT 3 23 Apr 13:37:02 13:39:57 20° 110° (ESE) 13:42:55 437.485
Gurwin Techsat 1B 23 Apr 13:51:01 13:56:19 81° 76° (ENE) 14:01:39 435.225
ITAMSAT 1 23 Apr 14:00:44 14:03:05 13° 64° (ENE) 14:05:25 435.822/435.867
PCSat 23 Apr 14:03:26 14:07:10 19° 255° (WSW) 14:10:53 145.827
AO-85 23 Apr 14:09:17 14:12:45 23° 304° (NW) 14:16:05 145.980
AO-7 23 Apr 14:10:12 14:16:49 28° 61° (ENE) 14:23:26 .
50 SAT 23 Apr 14:12:01 14:14:12 16° 290° (WNW) 14:16:23 437.505
UKube-1 23 Apr 14:14:42 14:18:54 53° 286° (WNW) 14:23:05 .
Oscar 19 23 Apr 14:19:51 14:24:13 28° 263° (W) 14:28:38 437.125/150
ITUPSAT 1 23 Apr 14:23:59 14:24:47 10° 92° (E) 14:25:35 437.325
YUBILEINY 23 Apr 14:40:30 14:46:32 20° 70° (ENE) 14:52:32 435.215
DX 1 23 Apr 14:41:09 14:44:11 19° 291° (WNW) 14:47:12 434.975-435.025
BEESAT 2 23 Apr 15:03:54 15:07:49 85° 115° (ESE) 15:11:49 435.950
RS-15 23 Apr 15:03:57 15:12:43 22° 34° (NE) 15:21:12 29.354- 29.394
BEESAT 3 23 Apr 15:14:06 15:17:21 25° 305° (NW) 15:20:40 437.485
BEESAT 23 Apr 15:20:05 15:24:43 51° 100° (E) 15:29:20 436.000
SO-50 23 Apr 15:24:35 15:27:06 15° 50° (NE) 15:29:36 436.795
ITAMSAT 1 23 Apr 15:36:48 15:41:57 63° 259° (W) 15:47:07 435.822/435.867
MOZHAYETS 4 23 Apr 15:45:24 15:49:49 44° 99° (E) 15:54:12
ITUPSAT 1 23 Apr 15:58:12 16:02:54 61° 285° (WNW) 16:07:37 437.325
AO-7 23 Apr 16:00:54 16:09:01 58° 257° (WSW) 16:17:10 .
ISS 23 Apr 16:22:24 16:25:20 30° 39° (NE) 16:28:15 437.550
KKS-1 23 Apr 16:24:41 16:27:43 18° 95° (E) 16:30:44 437.445
Tancredo 1 23 Apr 16:27:16 16:30:16 44° 41° (NE) 16:33:16 437.200
CUBESAT XI-V 23 Apr 16:27:35 16:31:02 20° 95° (E) 16:34:28 437.345
YUBILEINY 23 Apr 16:35:19 16:44:01 72° 267° (W) 16:52:45 435.215
DOVE 4 23 Apr 16:48:28 16:51:59 18° 67° (ENE) 16:55:28 437.250
BEESAT 23 Apr 16:59:38 17:02:01 14° 294° (WNW) 17:04:23 436.000
SO-50 23 Apr 17:03:27 17:07:50 52° 245° (WSW) 17:12:13 436.795
STARS 23 Apr 17:06:05 17:09:29 22° 96° (E) 17:12:51 437.465
RS-15 23 Apr 17:15:32 17:27:46 74° 60° (ENE) 17:39:19 29.354- 29.394
MOZHAYETS 4 23 Apr 17:24:03 17:26:33 15° 293° (WNW) 17:29:04
XW-2F 23 Apr 17:29:57 17:32:46 21° 72° (ENE) 17:35:36 145.980 - 146.000
JUGNU 23 Apr 17:44:11 17:47:20 15° 166° (SSE) 17:50:30 437.505
NUDT-PHONESAT 23 Apr 17:51:36 17:54:53 32° 74° (ENE) 17:58:11 437.300
CUTE-I 23 Apr 17:58:39 18:03:51 54° 73° (ENE) 18:09:04 437.470
ISS 23 Apr 17:59:21 18:01:36 18° 233° (SW) 18:03:52 437.550
KKS-1 23 Apr 18:00:22 18:04:16 31° 289° (WNW) 18:08:10 437.445
CUBESAT XI-V 23 Apr 18:04:13 18:08:23 32° 288° (WNW) 18:12:33 437.345
Tancredo 1 23 Apr 18:05:12 18:05:52 10° 234° (SW) 18:06:32 437.200
XW-2D 23 Apr 18:16:12 18:19:56 78° 258° (WSW) 18:23:41 145.860 - 145.880
XW-2B 23 Apr 18:23:05 18:26:46 64° 259° (W) 18:30:30 145.730 - 145.750
DOVE 4 23 Apr 18:24:07 18:29:11 48° 261° (W) 18:34:18 437.250
LilacSat-2 23 Apr 18:30:05 18:33:42 47° 261° (W) 18:37:21 437.200
XW-2C 23 Apr 18:35:00 18:38:32 42° 261° (W) 18:42:06 145.795 - 145.815
KAITUO 1B 23 Apr 18:41:12 18:44:43 44° 261° (W) 18:48:16 145.475/437.950
STARS 23 Apr 18:42:09 18:45:43 25° 290° (WNW) 18:49:16 437.465
HO-68 23 Apr 18:48:27 18:55:06 44° 68° (ENE) 19:01:47 435.675
STRAND 1 23 Apr 18:54:45 18:57:14 14° 93° (E) 18:59:43 437.568
XW-2A 23 Apr 18:55:54 18:58:49 28° 74° (ENE) 19:01:43 145.665 - 145.685
XW-2F 23 Apr 19:04:10 19:06:48 18° 265° (W) 19:09:25 145.980 - 146.000
M-CUBED/EXP-1 PRIME 23 Apr 19:20:17 19:23:12 19° 98° (E) 19:25:57 437.505
NUDT-PHONESAT 23 Apr 19:27:42 19:28:52 11° 267° (W) 19:30:02 437.300
RS-15 23 Apr 19:29:54 19:38:56 26° 258° (WSW) 19:47:41 29.354- 29.394
JUGNU 23 Apr 19:31:13 19:35:42 22° 175° (S) 19:40:13 437.505
ZACube-1 23 Apr 19:31:15 19:31:54 10° 67° (ENE) 19:32:35 437.345
CUTE 1.7 + AOD 2 23 Apr 19:36:00 19:40:11 82° 258° (WSW) 19:44:26 437.475
AO-73 23 Apr 19:39:15 19:40:48 12° 68° (ENE) 19:42:21 145.935
CUTE-I 23 Apr 19:41:13 19:44:08 15° 267° (W) 19:47:03 437.470
AAUSAT CUBESAT 2 23 Apr 19:45:44 19:49:27 34° 73° (ENE) 19:53:12 437.432
Oscar 11 23 Apr 19:57:37 20:00:25 17° 69° (ENE) 20:03:13 .
UWE-3 23 Apr 20:00:27 20:04:38 46° 75° (ENE) 20:08:42 435.000/436.395/437.385
SEEDS 23 Apr 20:02:38 20:06:44 60° 260° (W) 20:10:53 437.485
O/OREOS (USA 219) 23 Apr 20:02:45 20:05:15 14° 60° (ENE) 20:07:44 437.305
CUBEBUG 2 23 Apr 20:06:09 20:10:38 83° 260° (W) 20:14:59 437.445
NO-84 23 Apr 20:10:50 20:14:37 83° 312° (NW) 20:18:04 435.350 FM
XW-2A 23 Apr 20:30:55 20:31:36 10° 266° (W) 20:32:15 145.665 - 145.685
STRAND 1 23 Apr 20:31:41 20:36:39 54° 286° (WNW) 20:41:36 437.568
HO-68 23 Apr 20:36:51 20:42:51 29° 263° (W) 20:48:55 435.675
SRMSAT 23 Apr 20:48:02 20:51:47 17° 168° (SSE) 20:55:32 437.500
M-CUBED/EXP-1 PRIME 23 Apr 20:54:06 20:57:36 26° 294° (WNW) 21:00:54 437.505
OBJECT BX 23 Apr 20:57:54 20:59:56 15° 70° (ENE) 21:02:00 145.990 - 145.960
DELFI C3 23 Apr 21:00:29 21:03:40 24° 72° (ENE) 21:06:52 145.870
ZACube-1 23 Apr 21:03:34 21:07:43 51° 260° (W) 21:11:49 437.345
AO-73 23 Apr 21:12:34 21:16:37 44° 261° (W) 21:20:37 145.935
JUGNU 23 Apr 21:19:39 21:24:08 22° 185° (S) 21:28:37 437.505
AAUSAT CUBESAT 2 23 Apr 21:22:44 21:24:58 14° 266° (W) 21:27:12 437.432
Oscar 11 23 Apr 21:32:27 21:36:15 31° 262° (W) 21:40:06 .
UWE-3 23 Apr 21:39:59 21:41:13 11° 267° (W) 21:42:28 435.000/436.395/437.385
O/OREOS (USA 219) 23 Apr 21:40:31 21:44:52 45° 255° (WSW) 21:49:10 437.305
PRISM 23 Apr 21:45:54 21:49:23 26° 97° (E) 21:52:50 437.425
FO-29 23 Apr 22:04:57 22:08:52 21° 97° (E) 22:12:56 435.910
LO-87 23 Apr 22:12:24 22:14:40 16° 70° (ENE) 22:16:55 145.935 - 145.965
ESTCUBE 1 23 Apr 22:26:50 22:29:32 16° 68° (ENE) 22:32:14 437.505/2401.250
OBJECT BX 23 Apr 22:30:20 22:33:23 25° 263° (W) 22:36:26 145.990 - 145.960
TIGRISAT 23 Apr 22:33:29 22:37:41 55° 100° (E) 22:41:55 435.000
DELFI C3 23 Apr 22:35:32 22:38:21 19° 265° (W) 22:41:13 145.870
SRMSAT 23 Apr 22:35:44 22:40:20 23° 178° (S) 22:44:56 437.500
AO-85 23 Apr 22:43:09 22:47:11 79° 62° (ENE) 22:51:25 145.980
UNISAT 6 23 Apr 22:53:40 22:57:57 75° 283° (WNW) 23:02:15 437.425
JUGNU 23 Apr 23:09:29 23:12:30 14° 195° (SSW) 23:15:31 437.505
PRISM 23 Apr 23:21:28 23:24:27 19° 291° (WNW) 23:27:24 437.425
BEESAT 2 23 Apr 23:27:03 23:29:10 14° 51° (NE) 23:31:16 435.950
BEESAT 3 23 Apr 23:34:11 23:38:01 42° 59° (ENE) 23:41:48 437.485
LO-87 23 Apr 23:44:55 23:47:53 23° 263° (W) 23:50:51 145.935 - 145.965
POLYITAN 1 23 Apr 23:45:19 23:48:41 23° 97° (E) 23:52:04 437.675
FO-29 23 Apr 23:49:17 23:54:00 36° 288° (WNW) 23:58:58 435.910
QB50P2 23 Apr 23:51:26 23:55:11 31° 98° (E) 23:58:53 145.880/145.840
DX 1 23 Apr 23:56:37 23:59:15 16° 68° (ENE) 00:01:54 434.975-435.025
ESTCUBE 1 24 Apr 00:01:48 00:05:57 38° 261° (W) 00:10:11 437.505/2401.250
AIST 2D 24 Apr 00:12:09 00:15:38 60° 283° (WNW) 00:19:06 435.315
TIGRISAT 24 Apr 00:13:40 00:13:52 10° 294° (WNW) 00:14:05 435.000
NANOSAT C BR1 24 Apr 00:16:20 00:20:26 52° 101° (E) 00:24:30 145.865
SPROUT 24 Apr 00:19:10 00:23:26 78° 78° (ENE) 00:27:43 437.525
SRMSAT 24 Apr 00:24:37 00:28:54 20° 188° (S) 00:33:11 437.500
BUGSAT 1 24 Apr 00:28:23 00:31:01 17° 95° (E) 00:33:41 437.445
VELOX 1 24 Apr 00:28:27 00:32:53 75° 259° (WSW) 00:37:21 145.980
50 SAT 24 Apr 00:39:03 00:42:31 88° 74° (ENE) 00:46:00 437.505
EO-79 24 Apr 00:42:02 00:46:11 64° 284° (WNW) 00:50:19 145.935-145.965
DUCHIFAT 1 24 Apr 00:47:51 00:51:59 67° 285° (WNW) 00:56:07 145.980
Oscar 19 24 Apr 00:58:01 01:00:32 14° 93° (E) 01:03:03 437.125/150
BEESAT 2 24 Apr 01:03:17 01:07:08 44° 246° (WSW) 01:10:57 435.950
UKube-1 24 Apr 01:04:12 01:08:29 69° 76° (ENE) 01:12:48 .
BEESAT 3 24 Apr 01:13:45 01:15:09 12° 252° (WSW) 01:16:33 437.485
POLYITAN 1 24 Apr 01:21:07 01:24:18 22° 290° (WNW) 01:27:30 437.675
QB50P2 24 Apr 01:27:59 01:30:41 17° 291° (WNW) 01:33:23 145.880/145.840
DX 1 24 Apr 01:31:03 01:35:05 36° 261° (W) 01:39:09 434.975-435.025
NANOSAT C BR1 24 Apr 01:55:26 01:55:37 10° 294° (WNW) 01:55:49 145.865
BUGSAT 1 24 Apr 02:02:59 02:06:21 26° 288° (WNW) 02:09:42 437.445
Gurwin Techsat 1B 24 Apr 02:11:54 02:17:00 46° 100° (E) 02:22:05 435.225
SRMSAT 24 Apr 02:15:26 02:17:25 12° 197° (SSW) 02:19:23 437.500
BEESAT 24 Apr 02:22:10 02:26:28 35° 71° (ENE) 02:30:47 436.000
Oscar 19 24 Apr 02:35:01 02:40:07 56° 286° (WNW) 02:45:11 437.125/150
MOZHAYETS 4 24 Apr 02:43:19 02:47:01 25° 71° (ENE) 02:50:43
PCSat 24 Apr 02:55:42 03:01:06 79° 296° (WNW) 03:06:33 145.827
ITUPSAT 1 24 Apr 03:00:10 03:04:55 88° 257° (WSW) 03:09:41 437.325
KKS-1 24 Apr 03:20:52 03:21:34 10° 65° (ENE) 03:22:17 437.445
CUBESAT XI-V 24 Apr 03:28:13 03:30:00 12° 66° (ENE) 03:31:47 437.345
YUBILEINY 24 Apr 03:35:59 03:42:48 27° 84° (E) 03:49:36 435.215
Gurwin Techsat 1B 24 Apr 03:53:00 03:56:31 18° 294° (WNW) 04:00:03 435.225
ITAMSAT 1 24 Apr 03:54:04 03:59:13 67° 102° (ESE) 04:04:21 435.822/435.867
STARS 24 Apr 04:00:00 04:01:45 12° 66° (ENE) 04:03:30 437.465
BEESAT 24 Apr 04:00:59 04:04:16 19° 265° (W) 04:07:34 436.000
AO-7 24 Apr 04:07:14 04:15:29 65° 104° (ESE) 04:23:44 .
MOZHAYETS 4 24 Apr 04:20:23 04:24:03 24° 264° (W) 04:27:43
NO-84 24 Apr 04:26:01 04:28:51 84° 53° (NE) 04:31:41 435.350 FM
KKS-1 24 Apr 04:53:08 04:57:33 60° 259° (W) 05:02:00 437.445
CUBESAT XI-V 24 Apr 05:02:19 05:06:50 54° 260° (W) 05:11:24 437.345
RS-15 24 Apr 05:28:06 05:32:44 13° 96° (E) 05:37:25 29.354- 29.394
YUBILEINY 24 Apr 05:30:33 05:38:59 54° 280° (W) 05:47:27 435.215
STARS 24 Apr 05:33:19 05:37:37 49° 260° (W) 05:41:54 437.465
ITAMSAT 1 24 Apr 05:36:00 05:38:03 12° 296° (WNW) 05:40:05 435.822/435.867
SO-50 24 Apr 05:36:08 05:37:38 11° 107° (ESE) 05:39:08 436.795
XW-2D 24 Apr 05:54:17 05:56:28 15° 94° (E) 05:58:39 145.860 - 145.880
XW-2B 24 Apr 06:00:48 06:03:21 17° 95° (E) 06:05:55 145.730 - 145.750
AO-7 24 Apr 06:01:16 06:07:33 25° 300° (WNW) 06:13:51 .
M-CUBED/EXP-1 PRIME 24 Apr 06:01:50 06:04:26 15° 62° (ENE) 06:07:03 437.505
STRAND 1 24 Apr 06:06:59 06:09:21 13° 65° (ENE) 06:11:43 437.568
LilacSat-2 24 Apr 06:07:53 06:10:59 23° 96° (E) 06:14:04 437.200
XW-2C 24 Apr 06:12:02 06:15:12 25° 97° (E) 06:18:21 145.795 - 145.815
KAITUO 1B 24 Apr 06:17:02 06:20:01 22° 96° (E) 06:23:00 145.475/437.950
CUTE-I 24 Apr 06:20:32 06:25:13 31° 98° (E) 06:29:51 437.470
DOVE 4 24 Apr 06:28:01 06:32:39 70° 101° (E) 06:36:58 437.250
XW-2F 24 Apr 06:39:14 06:42:59 57° 100° (E) 06:46:44 145.980 - 146.000
NUDT-PHONESAT 24 Apr 06:59:32 07:03:16 90° 97° (E) 07:06:59 437.300
SO-50 24 Apr 07:13:00 07:17:35 58° 300° (WNW) 07:22:07 436.795
CUTE 1.7 + AOD 2 24 Apr 07:25:44 07:29:12 24° 96° (E) 07:32:38 437.475
XW-2D 24 Apr 07:27:23 07:30:38 27° 287° (WNW) 07:33:54 145.860 - 145.880
RS-15 24 Apr 07:31:10 07:43:00 74° 113° (ESE) 07:55:17 29.354- 29.394
M-CUBED/EXP-1 PRIME 24 Apr 07:34:00 07:38:20 49° 256° (WSW) 07:42:52 437.505
XW-2B 24 Apr 07:34:24 07:37:28 23° 288° (WNW) 07:40:32 145.730 - 145.750
LilacSat-2 24 Apr 07:42:25 07:45:04 18° 289° (WNW) 07:47:43 437.200
STRAND 1 24 Apr 07:42:56 07:47:58 60° 259° (W) 07:53:01 437.568
XW-2C 24 Apr 07:46:42 07:49:09 17° 290° (WNW) 07:51:38 145.795 - 145.815
SEEDS 24 Apr 07:50:58 07:54:42 29° 97° (E) 07:58:25 437.485
KAITUO 1B 24 Apr 07:51:13 07:53:50 18° 289° (WNW) 07:56:28 145.475/437.950
XW-2A 24 Apr 07:54:03 07:57:22 57° 101° (E) 08:00:39 145.665 - 145.685
UWE-3 24 Apr 07:55:58 07:57:48 13° 94° (E) 07:59:38 435.000/436.395/437.385
CUTE-I 24 Apr 08:00:43 08:05:04 26° 291° (WNW) 08:09:25 437.470
CUBEBUG 2 24 Apr 08:01:40 08:05:11 26° 97° (E) 08:08:44 437.445
HO-68 24 Apr 08:07:53 08:15:04 71° 103° (ESE) 08:22:14 435.675
PRISM 24 Apr 08:33:07 08:34:11 11° 66° (ENE) 08:35:15 437.425
ZACube-1 24 Apr 08:55:56 08:59:53 38° 99° (E) 09:03:53 437.345
Tancredo 1 24 Apr 08:58:17 09:01:18 48° 318° (NW) 09:04:20 437.200
ISS 24 Apr 08:58:44 09:01:57 69° 316° (NW) 09:05:12 437.550
CUTE 1.7 + AOD 2 24 Apr 09:01:31 09:04:52 23° 289° (WNW) 09:08:13 437.475
AO-73 24 Apr 09:04:24 09:08:26 44° 99° (E) 09:12:32 145.935
AAUSAT CUBESAT 2 24 Apr 09:06:55 09:11:05 67° 284° (WNW) 09:15:13 437.432
Oscar 11 24 Apr 09:23:19 09:27:39 63° 101° (E) 09:31:57 .
SEEDS 24 Apr 09:27:15 09:30:08 18° 290° (WNW) 09:33:00 437.485
TIGRISAT 24 Apr 09:28:02 09:31:48 28° 72° (ENE) 09:35:31 435.000
UWE-3 24 Apr 09:30:27 09:34:21 39° 286° (WNW) 09:38:19 435.000/436.395/437.385
CUBEBUG 2 24 Apr 09:38:40 09:41:36 19° 290° (WNW) 09:44:33 437.445
RS-15 24 Apr 09:46:11 09:56:36 32° 315° (NW) 10:07:19 29.354- 29.394
UNISAT 6 24 Apr 09:47:47 09:52:07 53° 75° (ENE) 09:56:22 437.425
FO-29 24 Apr 09:55:34 10:02:03 54° 74° (ENE) 10:07:48 435.910
HO-68 24 Apr 09:57:19 10:02:02 19° 299° (WNW) 10:06:46 435.675
OBJECT BX 24 Apr 10:02:57 10:06:16 33° 98° (E) 10:09:36 145.990 - 145.960
PRISM 24 Apr 10:04:58 10:08:58 48° 260° (W) 10:13:01 437.425
